Flag for Switzerland Weather past 2 weeks in Bülach, Zurich, Switzerland

48 °F

Partly cloudy.

Feels Like: 41 °F
Forecast: 36 / 49 °F
Wind: 21 mph from Southwest

Location: Zurich-Kloten

Current Time: Nov 30, 2015 at 7:39:20 AM

Latest Report: Nov 30, 2015 at 6:50 AM

Visibility: N/A

Pressure: 30.36 "Hg

Humidity: 82%

Dew point: 43 °F

Location of BülachLocation

Historic Weather in Bülach — Graph


Bülach temperature yesterday

Maximum temperature yesterday: 46 °F (at 6:50 PM)
Minimum temperature yesterday: 30 °F (at 2:20 AM)
Average temperature yesterday: 41 °F

Past Weeks' High & Low Weather Summary

High64 °F (Nov 15, 1:50 PM)100% (Nov 16, 3:20 AM)30.36 "Hg (Nov 16, 3:20 AM)
Low21 °F (Nov 24, 5:20 AM)42% (Nov 15, 11:20 AM)29.42 "Hg (Nov 21, 1:50 PM)
Average43 °F84%30.03 "Hg
* Reported Nov 15 6:20 AM — Nov 30 6:20 AM, Bülach, Weather by CustomWeather, © 2015

Note: Actual official high and low records may vary slightly from our data, if they occured in-between our weather recording intervals... More about our weather records


Bülach weather history for previous 24 hours

Time TempWeatherWind HumidityBarometerVisibility
6:20 AM
Mon, Nov 30
48 °FLight rain. Partly cloudy.21 mph82%30.33 "HgN/A
5:50 AM48 °FLight rain. Passing clouds.22 mph76%30.33 "HgN/A
5:20 AM48 °FLight rain. Partly cloudy.16 mph76%30.36 "HgN/A
4:50 AM48 °FPartly cloudy.16 mph76%30.33 "HgN/A
4:20 AM48 °FPartly cloudy.21 mph76%30.33 "HgN/A
3:50 AM48 °FPartly cloudy.21 mph76%30.33 "HgN/A
3:20 AM48 °FPartly cloudy.18 mph82%30.33 "HgN/A
1:50 AM48 °FScattered showers. Partly cloudy.15 mph76%30.33 "HgN/A
12:50 AM48 °FPartly cloudy.23 mph82%30.30 "HgN/A
11:50 PM
Sun, Nov 29
46 °FScattered showers. Passing clouds.15 mph82%30.30 "HgN/A
11:20 PM46 °FPartly cloudy.15 mph87%30.30 "HgN/A
10:50 PM46 °FRain showers. Partly cloudy.17 mph82%30.30 "Hg6 mi
10:20 PM46 °FScattered showers. Partly cloudy.14 mph82%30.30 "HgN/A
9:50 PM46 °FPassing clouds.17 mph82%30.30 "HgN/A
9:20 PM46 °FPartly cloudy.21 mph82%30.30 "HgN/A
8:50 PM46 °FScattered showers. Partly cloudy.22 mph82%30.30 "HgN/A
8:20 PM46 °FScattered showers. Passing clouds.12 mph82%30.30 "HgN/A
7:50 PM45 °FSprinkles. Partly cloudy.15 mph87%30.30 "HgN/A
7:20 PM45 °FRain showers. Passing clouds.15 mph87%30.30 "HgN/A
6:50 PM46 °FPassing clouds.14 mph82%30.27 "HgN/A
6:20 PM45 °FPassing clouds.13 mph87%30.27 "HgN/A
5:50 PM45 °FRain showers. Passing clouds.14 mph87%30.27 "HgN/A
5:20 PM45 °FLight rain. Passing clouds.17 mph87%30.27 "HgN/A
4:50 PM45 °FPassing clouds.14 mph81%30.27 "HgN/A
4:20 PM43 °FBroken clouds.12 mph87%30.27 "HgN/A
3:50 PM43 °FBroken clouds.15 mph87%30.27 "HgN/A
3:20 PM43 °FBroken clouds.15 mph87%30.24 "HgN/A
2:50 PM43 °FSprinkles. Broken clouds.18 mph87%30.24 "HgN/A
2:20 PM43 °FSprinkles. Partly sunny.16 mph87%30.24 "HgN/A
1:50 PM43 °FSprinkles. Partly sunny.17 mph81%30.24 "HgN/A
1:20 PM41 °FDrizzle. Overcast.13 mph87%30.21 "HgN/A
12:50 PM41 °FLight rain. Overcast.9 mph87%30.24 "HgN/A
12:20 PM39 °FLight rain. Overcast.12 mph93%30.24 "HgN/A
11:50 AM39 °FLight rain. Partly sunny.12 mph93%30.24 "Hg4 mi
11:20 AM37 °FDrizzle. Broken clouds.13 mph93%30.24 "Hg4 mi
10:20 AM37 °FRain. Broken clouds.14 mph93%30.24 "Hg5 mi
9:50 AM37 °FRain. More clouds than sun.14 mph93%30.24 "Hg3 mi
9:20 AM37 °FDrizzle. Overcast.14 mph87%30.24 "Hg4 mi
8:50 AM37 °FLight rain. More clouds than sun.13 mph87%30.24 "Hg5 mi
8:20 AM39 °FDrizzle. More clouds than sun.13 mph70%30.21 "HgN/A
7:50 AM39 °FScattered showers. Broken clouds.7 mph70%30.21 "HgN/A
7:20 AM39 °FPassing clouds.8 mph70%30.21 "HgN/A
Weather by CustomWeather, © 2015

See weather overviewHow to use our weather pages